| time (UTC) | temp F | wind direction | speed knots | gust knots | rain 1hr in | rain 24hr in | rain mn in | humidity % | barometer mb |
| 20260506050151 | 57 | 69 | 2.6 | 2.6 | 0.00 | 0.00 | 0.00 | 81 | 1009.9 |
| 20260506044643 | 57 | 32 | 2.6 | 2.6 | 0.00 | 0.00 | 0.00 | 82 | 1010.3 |
| 20260506044139 | 57 | 80 | 0.9 | 1.7 | 0.00 | 0.00 | 0.00 | 82 | 1010.1 |
| 20260506043636 | 57 | 87 | 0.9 | 0.9 | 0.00 | 0.00 | 0.00 | 82 | 1010.2 |
| 20260506043134 | 57 | 57 | 1.7 | 1.7 | 0.00 | 0.00 | 0.00 | 82 | 1010.1 |
| 20260506042633 | 57 | 25 | 0.9 | 1.7 | 0.00 | 0.00 | 0.00 | 82 | 1010.1 |
| 20260506042131 | 57 | 20 | 2.6 | 2.6 | 0.00 | 0.00 | 0.00 | 81 | 1010.1 |
| 20260506041629 | 57 | 75 | 2.6 | 4.3 | 0.00 | 0.00 | 0.00 | 81 | 1010.1 |
| 20260506041125 | 58 | 89 | 2.6 | 5.2 | 0.00 | 0.00 | 0.00 | 80 | 1010.0 |
| 20260506040623 | 58 | 51 | 2.6 | 5.2 | 0.00 | 0.00 | 0.00 | 80 | 1010.0 |
| 20260506040120 | 58 | 91 | 5.2 | 7.0 | 0.00 | 0.00 | 0.00 | 81 | 1010.3 |
| 20260506035617 | 58 | 69 | 0.0 | 0.9 | 0.00 | 0.00 | 0.00 | 81 | 1010.1 |
| 20260506035113 | 58 | 67 | 3.5 | 4.3 | 0.00 | 0.00 | 0.00 | 81 | 1010.0 |
| 20260506034611 | 58 | 54 | 2.6 | 4.3 | 0.00 | 0.00 | 0.00 | 81 | 1009.9 |
| 20260506034108 | 58 | 70 | 0.0 | 0.9 | 0.00 | 0.00 | 0.00 | 81 | 1009.6 |
| 20260506033605 | 58 | 42 | 4.3 | 6.1 | 0.00 | 0.00 | 0.00 | 80 | 1009.8 |
| 20260506033101 | 59 | 5 | 6.1 | 7.8 | 0.00 | 0.00 | 0.00 | 80 | 1009.8 |
| 20260506032559 | 59 | 5 | 1.7 | 5.2 | 0.00 | 0.00 | 0.00 | 80 | 1009.9 |
| 20260506032056 | 59 | 14 | 2.6 | 2.6 | 0.00 | 0.00 | 0.00 | 80 | 1009.9 |
| 20260506031553 | 59 | 31 | 4.3 | 7.0 | 0.00 | 0.00 | 0.00 | 80 | 1009.6 |
| 20260506031050 | 60 | 5 | 1.7 | 4.3 | 0.00 | 0.00 | 0.00 | 79 | 1009.4 |
| 20260506030548 | 60 | 1 | 2.6 | 2.6 | 0.00 | 0.00 | 0.00 | 79 | 1009.4 |
| 20260506030045 | 60 | 65 | 0.0 | 0.0 | 0.00 | 0.00 | 0.00 | 79 | 1009.6 |
| 20260506025542 | 60 | 99 | 0.9 | 1.7 | 0.00 | 0.00 | 0.00 | 78 | 1009.3 |
| 20260506025038 | 61 | 74 | 1.7 | 2.6 | 0.00 | 0.00 | 0.00 | 77 | 1009.3 |
| 20260506024535 | 61 | 15 | 0.0 | 0.0 | 0.00 | 0.00 | 0.00 | 78 | 1009.0 |
| 20260506024031 | 61 | 329 | 4.3 | 7.0 | 0.00 | 0.00 | 0.00 | 78 | 1008.4 |
| 20260506023528 | 62 | 6 | 0.9 | 0.9 | 0.00 | 0.00 | 0.00 | 77 | 1008.7 |
| 20260506023026 | 62 | 327 | 0.0 | 0.9 | 0.00 | 0.00 | 0.00 | 76 | 1008.4 |
| 20260506022523 | 62 | 25 | 2.6 | 7.0 | 0.00 | 0.00 | 0.00 | 76 | 1008.4 |
| 20260506022020 | 63 | 51 | 1.7 | 5.2 | 0.00 | 0.00 | 0.00 | 76 | 1008.3 |
| 20260506021518 | 63 | 73 | 2.6 | 6.1 | 0.00 | 0.00 | 0.00 | 76 | 1008.2 |
| 20260506021015 | 64 | 322 | 6.1 | 11.3 | 0.00 | 0.00 | 0.00 | 75 | 1008.4 |
| 20260506020512 | 65 | 68 | 0.0 | 0.9 | 0.00 | 0.00 | 0.00 | 74 | 1007.8 |
| 20260506020010 | 66 | 34 | 5.2 | 7.0 | 0.00 | 0.00 | 0.00 | 74 | 1007.7 |
| 20260506015507 | 66 | 70 | 5.2 | 7.8 | 0.00 | 0.00 | 0.00 | 73 | 1007.4 |
| 20260506015003 | 67 | 335 | 0.0 | 0.9 | 0.00 | 0.00 | 0.00 | 72 | 1007.1 |
| 20260506014501 | 67 | 49 | 0.0 | 0.0 | 0.00 | 0.00 | 0.00 | 71 | 1006.9 |
| 20260506013957 | 67 | 41 | 0.9 | 2.6 | 0.00 | 0.00 | 0.00 | 70 | 1006.8 |
| 20260506013455 | 68 | 48 | 0.0 | 0.9 | 0.00 | 0.00 | 0.00 | 70 | 1006.5 |
| 20260506012950 | 68 | 101 | 0.0 | 0.0 | 0.00 | 0.00 | 0.00 | 70 | 1006.4 |
| 20260506012447 | 69 | 41 | 0.0 | 0.0 | 0.00 | 0.00 | 0.00 | 69 | 1006.6 |
| 20260506011944 | 69 | 55 | 0.0 | 0.0 | 0.00 | 0.00 | 0.00 | 68 | 1006.7 |
| 20260506011442 | 70 | 25 | 0.0 | 0.0 | 0.00 | 0.00 | 0.00 | 67 | 1006.5 |
| 20260506010938 | 70 | 353 | 0.0 | 0.0 | 0.00 | 0.00 | 0.00 | 66 | 1006.4 |
| 20260506010437 | 70 | 340 | 0.0 | 0.0 | 0.00 | 0.00 | 0.00 | 65 | 1006.6 |
| 20260506005933 | 70 | 49 | 0.0 | 0.0 | 0.00 | 0.00 | 0.00 | 65 | 1006.6 |
| 20260506005431 | 71 | 14 | 0.0 | 0.0 | 0.00 | 0.00 | 0.00 | 64 | 1006.1 |
| 20260506004926 | 71 | 30 | 0.0 | 0.0 | 0.00 | 0.00 | 0.00 | 63 | 1006.0 |
| 20260506004424 | 72 | 8 | 0.9 | 1.7 | 0.00 | 0.00 | 0.00 | 63 | 1006.1 |
| 20260506003920 | 71 | 64 | 0.0 | 0.0 | 0.00 | 0.00 | 0.00 | 63 | 1006.0 |
| 20260506003417 | 72 | 20 | 2.6 | 8.7 | 0.00 | 0.00 | 0.00 | 63 | 1005.8 |
| 20260506002913 | 72 | 34 | 0.9 | 1.7 | 0.00 | 0.00 | 0.00 | 62 | 1005.7 |
| 20260506002409 | 71 | 48 | 0.9 | 1.7 | 0.00 | 0.00 | 0.00 | 61 | 1005.7 |
| 20260506001905 | 71 | 2 | 1.7 | 4.3 | 0.00 | 0.00 | 0.00 | 62 | 1005.5 |
| 20260506001402 | 72 | 56 | 7.8 | 9.6 | 0.00 | 0.00 | 0.00 | 63 | 1005.3 |
| 20260506000859 | 72 | 330 | 0.9 | 2.6 | 0.00 | 0.00 | 0.00 | 63 | 1005.3 |
| 20260506000357 | 72 | 40 | 0.0 | 0.0 | 0.00 | 0.00 | 0.00 | 62 | 1005.5 |
| 20260505235853 | 73 | 18 | 0.0 | 0.9 | 0.00 | 0.00 | 0.00 | 61 | 1005.9 |
| 20260505235351 | 73 | 35 | 5.2 | 7.8 | 0.00 | 0.00 | 0.00 | 61 | 1005.6 |
| 20260505234848 | 73 | 42 | 0.9 | 1.7 | 0.00 | 0.00 | 0.00 | 62 | 1005.6 |
| 20260505234346 | 73 | 354 | 0.0 | 0.0 | 0.00 | 0.00 | 0.00 | 62 | 1005.9 |
| 20260505233842 | 73 | 19 | 0.9 | 2.6 | 0.00 | 0.00 | 0.00 | 62 | 1005.7 |
| 20260505233340 | 74 | 36 | 0.0 | 0.0 | 0.00 | 0.00 | 0.00 | 61 | 1005.9 |
| 20260505232837 | 74 | 351 | 6.1 | 7.8 | 0.00 | 0.00 | 0.00 | 60 | 1005.8 |
| 20260505232335 | 74 | 13 | 2.6 | 6.1 | 0.00 | 0.00 | 0.00 | 61 | 1005.8 |
| 20260505231831 | 74 | 42 | 0.9 | 2.6 | 0.00 | 0.00 | 0.00 | 63 | 1005.6 |
| 20260505231329 | 74 | 10 | 0.0 | 0.0 | 0.00 | 0.00 | 0.00 | 62 | 1005.8 |
| 20260505230827 | 74 | 45 | 3.5 | 5.2 | 0.00 | 0.00 | 0.00 | 62 | 1005.8 |
| 20260505230324 | 75 | 335 | 1.7 | 4.3 | 0.00 | 0.00 | 0.00 | 61 | 1005.4 |
| 20260505225821 | 76 | 15 | 0.0 | 0.9 | 0.00 | 0.00 | 0.00 | 62 | 1005.2 |
| 20260505225319 | 76 | 359 | 0.0 | 0.0 | 0.00 | 0.00 | 0.00 | 62 | 1005.1 |
| 20260505224819 | 76 | 359 | 2.6 | 4.3 | 0.00 | 0.00 | 0.00 | 63 | 1004.9 |
| 20260505224317 | 78 | 35 | 0.9 | 2.6 | 0.00 | 0.00 | 0.00 | 58 | 1005.1 |
| 20260505223814 | 78 | 62 | 3.5 | 5.2 | 0.00 | 0.00 | 0.00 | 59 | 1004.9 |
| 20260505223311 | 78 | 69 | 4.3 | 7.0 | 0.00 | 0.00 | 0.00 | 60 | 1004.8 |
| 20260505222806 | 77 | 29 | 2.6 | 4.3 | 0.00 | 0.00 | 0.00 | 60 | 1004.9 |
| 20260505222305 | 78 | 338 | 4.3 | 5.2 | 0.00 | 0.00 | 0.00 | 62 | 1004.9 |
| 20260505221800 | 77 | 11 | 4.3 | 7.0 | 0.00 | 0.00 | 0.00 | 60 | 1004.9 |
| 20260505221257 | 77 | 2 | 4.3 | 7.0 | 0.00 | 0.00 | 0.00 | 61 | 1004.5 |
| 20260505220754 | 78 | 9 | 5.2 | 7.8 | 0.00 | 0.00 | 0.00 | 60 | 1004.9 |
| 20260505220251 | 78 | 319 | 6.1 | 7.0 | 0.00 | 0.00 | 0.00 | 60 | 1004.9 |
| 20260505215749 | 78 | 308 | 7.0 | 8.7 | 0.00 | 0.00 | 0.00 | 60 | 1004.9 |
| 20260505215246 | 78 | 16 | 6.1 | 8.7 | 0.00 | 0.00 | 0.00 | 59 | 1004.9 |
| 20260505214744 | 79 | 6 | 5.2 | 6.1 | 0.00 | 0.00 | 0.00 | 59 | 1004.9 |
| 20260505214241 | 79 | 320 | 7.8 | 11.3 | 0.00 | 0.00 | 0.00 | 59 | 1004.9 |
| 20260505213738 | 80 | 72 | 2.6 | 5.2 | 0.00 | 0.00 | 0.00 | 59 | 1004.9 |
| 20260505213236 | 81 | 24 | 2.6 | 4.3 | 0.00 | 0.00 | 0.00 | 57 | 1004.8 |
| 20260505212731 | 83 | 28 | 4.3 | 6.1 | 0.00 | 0.00 | 0.00 | 55 | 1004.6 |
| 20260505212229 | 83 | 15 | 7.0 | 7.8 | 0.00 | 0.00 | 0.00 | 55 | 1004.6 |
| 20260505211726 | 83 | 1 | 6.1 | 7.8 | 0.00 | 0.00 | 0.00 | 55 | 1004.4 |
| 20260505211223 | 83 | 12 | 4.3 | 6.1 | 0.00 | 0.00 | 0.00 | 56 | 1004.5 |
| 20260505210719 | 84 | 348 | 7.0 | 8.7 | 0.00 | 0.00 | 0.00 | 55 | 1004.5 |
| 20260505210216 | 85 | 21 | 3.5 | 5.2 | 0.00 | 0.00 | 0.00 | 53 | 1004.6 |
| 20260505205714 | 84 | 38 | 2.6 | 5.2 | 0.00 | 0.00 | 0.00 | 55 | 1004.5 |
| 20260505205212 | 84 | 5 | 4.3 | 7.8 | 0.00 | 0.00 | 0.00 | 55 | 1004.8 |
| 20260505204708 | 86 | 346 | 4.3 | 7.8 | 0.00 | 0.00 | 0.00 | 53 | 1004.6 |
| 20260505204206 | 86 | 21 | 3.5 | 5.2 | 0.00 | 0.00 | 0.00 | 52 | 1004.6 |
| 20260505203703 | 87 | 354 | 4.3 | 5.2 | 0.00 | 0.00 | 0.00 | 50 | 1004.4 |
| 20260505203200 | 86 | 27 | 6.1 | 7.8 | 0.00 | 0.00 | 0.00 | 46 | 1004.7 |
| 20260505202655 | 86 | 274 | 2.6 | 4.3 | 0.00 | 0.00 | 0.00 | 48 | 1004.5 |
| 20260505202152 | 86 | 287 | 5.2 | 7.0 | 0.00 | 0.00 | 0.00 | 47 | 1004.7 |
| 20260505201648 | 86 | 6 | 2.6 | 4.3 | 0.00 | 0.00 | 0.00 | 45 | 1005.0 |
| 20260505201146 | 86 | 1 | 4.3 | 5.2 | 0.00 | 0.00 | 0.00 | 46 | 1004.8 |
| 20260505200644 | 86 | 290 | 2.6 | 6.1 | 0.00 | 0.00 | 0.00 | 46 | 1004.8 |
| 20260505200141 | 85 | 345 | 4.3 | 7.8 | 0.00 | 0.00 | 0.00 | 45 | 1005.0 |
| 20260505195637 | 86 | 287 | 6.1 | 7.8 | 0.00 | 0.00 | 0.00 | 46 | 1004.9 |
| 20260505195134 | 85 | 29 | 4.3 | 7.0 | 0.00 | 0.00 | 0.00 | 42 | 1004.9 |
| 20260505194631 | 85 | 339 | 6.1 | 7.0 | 0.00 | 0.00 | 0.00 | 41 | 1005.0 |
| 20260505194127 | 85 | 285 | 9.6 | 11.3 | 0.00 | 0.00 | 0.00 | 41 | 1005.0 |
| 20260505193624 | 84 | 353 | 4.3 | 5.2 | 0.00 | 0.00 | 0.00 | 43 | 1005.0 |
| 20260505193121 | 83 | 349 | 5.2 | 8.7 | 0.00 | 0.00 | 0.00 | 42 | 1005.1 |
| 20260505192620 | 83 | 339 | 8.7 | 8.7 | 0.00 | 0.00 | 0.00 | 43 | 1005.0 |
| 20260505192117 | 83 | 330 | 6.1 | 7.8 | 0.00 | 0.00 | 0.00 | 41 | 1005.0 |
| 20260505191615 | 84 | 32 | 7.0 | 8.7 | 0.00 | 0.00 | 0.00 | 40 | 1005.0 |
| 20260505191113 | 87 | 266 | 4.3 | 5.2 | 0.00 | 0.00 | 0.00 | 50 | 1004.7 |
| 20260505190608 | 87 | 244 | 4.3 | 4.3 | 0.00 | 0.00 | 0.00 | 49 | 1004.5 |
| 20260505190104 | 87 | 275 | 2.6 | 5.2 | 0.00 | 0.00 | 0.00 | 48 | 1004.5 |
| 20260505185600 | 86 | 281 | 7.0 | 8.7 | 0.00 | 0.00 | 0.00 | 50 | 1004.7 |
| 20260505185057 | 87 | 251 | 2.6 | 2.6 | 0.00 | 0.00 | 0.00 | 57 | 1004.8 |
| 20260505184554 | 86 | 209 | 7.8 | 7.8 | 0.00 | 0.00 | 0.00 | 55 | 1004.4 |
| 20260505184050 | 86 | 232 | 7.8 | 8.7 | 0.00 | 0.00 | 0.00 | 56 | 1004.9 |
| 20260505183547 | 87 | 231 | 5.2 | 5.2 | 0.00 | 0.00 | 0.00 | 54 | 1004.8 |
| 20260505183045 | 86 | 218 | 11.3 | 12.2 | 0.00 | 0.00 | 0.00 | 54 | 1004.9 |
| 20260505182541 | 86 | 225 | 9.6 | 11.3 | 0.00 | 0.00 | 0.00 | 55 | 1004.8 |
| 20260505182038 | 86 | 225 | 6.1 | 7.8 | 0.00 | 0.00 | 0.00 | 58 | 1004.8 |
| 20260505181534 | 85 | 231 | 7.0 | 7.8 | 0.00 | 0.00 | 0.00 | 59 | 1004.7 |
| 20260505181033 | 86 | 224 | 10.4 | 12.2 | 0.00 | 0.00 | 0.00 | 56 | 1004.6 |
| 20260505180528 | 85 | 229 | 7.8 | 7.8 | 0.00 | 0.00 | 0.00 | 58 | 1004.7 |
| 20260505180027 | 84 | 239 | 10.4 | 12.2 | 0.00 | 0.00 | 0.00 | 57 | 1004.7 |
| 20260505175526 | 84 | 225 | 9.6 | 9.6 | 0.00 | 0.00 | 0.00 | 58 | 1004.7 |
| 20260505175023 | 84 | 224 | 8.7 | 9.6 | 0.00 | 0.00 | 0.00 | 60 | 1004.9 |
| 20260505174520 | 84 | 228 | 7.8 | 8.7 | 0.00 | 0.00 | 0.00 | 58 | 1004.7 |
| 20260505174016 | 84 | 226 | 5.2 | 7.0 | 0.00 | 0.00 | 0.00 | 60 | 1004.9 |
| 20260505173513 | 84 | 214 | 8.7 | 9.6 | 0.00 | 0.00 | 0.00 | 59 | 1004.8 |
| 20260505173010 | 83 | 220 | 7.8 | 8.7 | 0.00 | 0.00 | 0.00 | 62 | 1004.9 |
| 20260505172508 | 83 | 230 | 6.1 | 7.0 | 0.00 | 0.00 | 0.00 | 62 | 1004.9 |
| 20260505172009 | 84 | 209 | 8.7 | 9.6 | 0.00 | 0.00 | 0.00 | 61 | 1004.6 |
| 20260505171505 | 84 | 222 | 8.7 | 9.6 | 0.00 | 0.00 | 0.00 | 59 | 1004.9 |
| 20260505171001 | 84 | 225 | 10.4 | 12.2 | 0.00 | 0.00 | 0.00 | 59 | 1004.9 |
| 20260505170458 | 83 | 220 | 7.8 | 7.8 | 0.00 | 0.00 | 0.00 | 59 | 1004.7 |
| 20260505165954 | 83 | 233 | 8.7 | 9.6 | 0.00 | 0.00 | 0.00 | 60 | 1004.6 |
| 20260505165450 | 83 | 239 | 3.5 | 5.2 | 0.00 | 0.00 | 0.00 | 59 | 1004.6 |
| 20260505164945 | 83 | 235 | 7.8 | 8.7 | 0.00 | 0.00 | 0.00 | 58 | 1004.4 |
| 20260505164442 | 83 | 245 | 9.6 | 12.2 | 0.00 | 0.00 | 0.00 | 59 | 1004.6 |
| 20260505163940 | 83 | 218 | 7.8 | 7.8 | 0.00 | 0.00 | 0.00 | 59 | 1004.5 |
| 20260505163439 | 83 | 219 | 9.6 | 11.3 | 0.00 | 0.00 | 0.00 | 59 | 1004.3 |
| 20260505162937 | 83 | 229 | 9.6 | 9.6 | 0.00 | 0.00 | 0.00 | 61 | 1004.5 |
| 20260505162433 | 82 | 230 | 8.7 | 9.6 | 0.00 | 0.00 | 0.00 | 61 | 1004.1 |
| 20260505161930 | 82 | 252 | 7.8 | 9.6 | 0.00 | 0.00 | 0.00 | 62 | 1004.3 |
| 20260505161426 | 82 | 229 | 6.1 | 7.0 | 0.00 | 0.00 | 0.00 | 64 | 1004.6 |
| 20260505160924 | 82 | 237 | 6.1 | 7.8 | 0.00 | 0.00 | 0.00 | 63 | 1004.6 |
| 20260505160422 | 82 | 222 | 7.0 | 7.0 | 0.00 | 0.00 | 0.00 | 63 | 1004.6 |
| 20260505152858 | 80 | 226 | 6.1 | 6.1 | 0.00 | 0.00 | 0.00 | 69 | 1003.8 |
| 20260505152356 | 80 | 226 | 6.1 | 7.0 | 0.00 | 0.00 | 0.00 | 69 | 1003.9 |
| 20260505151855 | 79 | 217 | 5.2 | 6.1 | 0.00 | 0.00 | 0.00 | 71 | 1004.1 |
| 20260505151352 | 78 | 207 | 7.0 | 7.8 | 0.00 | 0.00 | 0.00 | 70 | 1004.1 |
| 20260505150849 | 78 | 222 | 7.8 | 8.7 | 0.00 | 0.00 | 0.00 | 71 | 1004.1 |
| 20260505150347 | 78 | 222 | 5.2 | 5.2 | 0.00 | 0.00 | 0.00 | 72 | 1004.2 |
| 20260505140317 | 74 | 219 | 6.1 | 7.0 | 0.00 | 0.00 | 0.00 | 78 | 1003.5 |
| 20260505130240 | 72 | 231 | 10.4 | 12.2 | 0.00 | 0.00 | 0.00 | 80 | 1003.1 |
| 20260505124731 | 72 | 209 | 8.7 | 8.7 | 0.00 | 0.00 | 0.00 | 81 | 1003.1 |
| 20260505124228 | 72 | 219 | 8.7 | 11.3 | 0.00 | 0.00 | 0.00 | 80 | 1003.0 |
| 20260505123723 | 72 | 218 | 7.8 | 9.6 | 0.00 | 0.00 | 0.00 | 80 | 1003.0 |
| 20260505123220 | 72 | 215 | 7.8 | 7.8 | 0.00 | 0.00 | 0.00 | 81 | 1003.0 |
| 20260505122717 | 71 | 223 | 12.2 | 13.9 | 0.00 | 0.00 | 0.00 | 81 | 1003.0 |
| 20260505122214 | 71 | 228 | 11.3 | 13.0 | 0.00 | 0.00 | 0.00 | 81 | 1002.8 |
| 20260505121710 | 71 | 223 | 7.8 | 9.6 | 0.00 | 0.00 | 0.00 | 81 | 1003.0 |
| 20260505121207 | 72 | 219 | 9.6 | 13.0 | 0.00 | 0.00 | 0.00 | 80 | 1003.0 |
| 20260505120703 | 71 | 201 | 12.2 | 14.8 | 0.00 | 0.00 | 0.00 | 80 | 1002.6 |
| 20260505120159 | 71 | 215 | 7.0 | 7.8 | 0.00 | 0.00 | 0.00 | 81 | 1002.6 |
| 20260505115653 | 71 | 218 | 8.7 | 9.6 | 0.00 | 0.00 | 0.00 | 81 | 1002.7 |
| 20260505115151 | 72 | 214 | 9.6 | 11.3 | 0.00 | 0.00 | 0.00 | 80 | 1002.7 |
| 20260505114648 | 72 | 224 | 11.3 | 13.0 | 0.00 | 0.00 | 0.00 | 80 | 1002.5 |
| 20260505114144 | 72 | 213 | 8.7 | 12.2 | 0.00 | 0.00 | 0.00 | 80 | 1002.4 |
| 20260505113641 | 72 | 205 | 11.3 | 13.9 | 0.00 | 0.00 | 0.00 | 80 | 1002.3 |
| 20260505113137 | 72 | 221 | 10.4 | 14.8 | 0.00 | 0.00 | 0.00 | 79 | 1002.5 |
| 20260505112633 | 72 | 217 | 11.3 | 13.9 | 0.00 | 0.00 | 0.00 | 79 | 1002.2 |
| 20260505112132 | 72 | 221 | 10.4 | 12.2 | 0.00 | 0.00 | 0.00 | 80 | 1002.4 |
| 20260505111625 | 72 | 225 | 10.4 | 12.2 | 0.00 | 0.00 | 0.00 | 79 | 1002.3 |
| 20260505111121 | 72 | 223 | 11.3 | 12.2 | 0.00 | 0.00 | 0.00 | 79 | 1002.4 |
| 20260505110618 | 73 | 208 | 11.3 | 14.8 | 0.00 | 0.00 | 0.00 | 78 | 1002.2 |
| 20260505110115 | 73 | 209 | 13.9 | 17.4 | 0.00 | 0.00 | 0.00 | 78 | 1002.2 |
| 20260505102051 | 72 | 205 | 13.0 | 15.6 | 0.00 | 0.00 | 0.00 | 78 | 1002.3 |
| 20260505101549 | 72 | 226 | 11.3 | 13.0 | 0.00 | 0.00 | 0.00 | 79 | 1002.4 |
| 20260505101045 | 73 | 235 | 15.6 | 18.2 | 0.00 | 0.00 | 0.00 | 78 | 1002.3 |
| 20260505100542 | 72 | 215 | 8.7 | 11.3 | 0.00 | 0.00 | 0.00 | 79 | 1002.4 |
| 20260505100039 | 72 | 218 | 9.6 | 11.3 | 0.00 | 0.00 | 0.00 | 78 | 1002.3 |
| 20260505095535 | 73 | 211 | 7.8 | 8.7 | 0.00 | 0.00 | 0.00 | 78 | 1002.2 |
| 20260505095031 | 73 | 222 | 9.6 | 12.2 | 0.00 | 0.00 | 0.00 | 79 | 1002.3 |
| 20260505094528 | 72 | 216 | 8.7 | 11.3 | 0.00 | 0.00 | 0.00 | 79 | 1002.4 |
| 20260505094024 | 72 | 223 | 8.7 | 9.6 | 0.00 | 0.00 | 0.00 | 79 | 1002.1 |
| 20260505093521 | 73 | 217 | 9.6 | 12.2 | 0.00 | 0.00 | 0.00 | 79 | 1002.4 |
| 20260505093018 | 72 | 226 | 8.7 | 9.6 | 0.00 | 0.00 | 0.00 | 79 | 1002.4 |
| 20260505092515 | 72 | 218 | 10.4 | 11.3 | 0.00 | 0.00 | 0.00 | 79 | 1002.5 |
| 20260505092014 | 72 | 220 | 9.6 | 11.3 | 0.00 | 0.00 | 0.00 | 79 | 1002.3 |
| 20260505091510 | 72 | 215 | 7.8 | 8.7 | 0.00 | 0.00 | 0.00 | 77 | 1002.5 |
| 20260505091009 | 72 | 214 | 9.6 | 9.6 | 0.00 | 0.00 | 0.00 | 78 | 1002.6 |
| 20260505090506 | 73 | 219 | 9.6 | 11.3 | 0.00 | 0.00 | 0.00 | 78 | 1002.6 |
| 20260505090003 | 72 | 208 | 10.4 | 12.2 | 0.00 | 0.00 | 0.00 | 79 | 1002.8 |
| 20260505085501 | 73 | 213 | 6.1 | 7.0 | 0.00 | 0.00 | 0.00 | 79 | 1002.7 |
| 20260505084959 | 73 | 207 | 7.8 | 8.7 | 0.00 | 0.00 | 0.00 | 78 | 1002.6 |
| 20260505084457 | 73 | 198 | 5.2 | 6.1 | 0.00 | 0.00 | 0.00 | 78 | 1002.8 |
| 20260505083955 | 73 | 183 | 5.2 | 6.1 | 0.00 | 0.00 | 0.00 | 78 | 1002.7 |
| 20260505083452 | 73 | 206 | 7.0 | 7.8 | 0.00 | 0.00 | 0.00 | 77 | 1002.6 |
| 20260505082949 | 73 | 225 | 7.0 | 7.8 | 0.00 | 0.00 | 0.00 | 77 | 1002.7 |
| 20260505082444 | 73 | 201 | 7.8 | 11.3 | 0.00 | 0.00 | 0.00 | 77 | 1002.8 |
| 20260505081942 | 73 | 220 | 7.0 | 7.8 | 0.00 | 0.00 | 0.00 | 77 | 1003.2 |
| 20260505081438 | 73 | 211 | 7.0 | 9.6 | 0.00 | 0.00 | 0.00 | 77 | 1003.1 |
| 20260505080934 | 73 | 211 | 7.8 | 8.7 | 0.00 | 0.00 | 0.00 | 76 | 1003.1 |
| 20260505080431 | 73 | 213 | 7.0 | 7.8 | 0.00 | 0.00 | 0.00 | 77 | 1002.7 |
| 20260505075926 | 73 | 200 | 7.0 | 8.7 | 0.00 | 0.00 | 0.00 | 77 | 1003.3 |
| 20260505075423 | 73 | 222 | 6.1 | 7.8 | 0.00 | 0.00 | 0.00 | 77 | 1003.4 |
| 20260505074921 | 73 | 208 | 3.5 | 5.2 | 0.00 | 0.00 | 0.00 | 77 | 1003.5 |
| 20260505074418 | 73 | 211 | 3.5 | 4.3 | 0.00 | 0.00 | 0.00 | 78 | 1003.4 |
| 20260505073915 | 74 | 203 | 5.2 | 7.0 | 0.00 | 0.00 | 0.00 | 77 | 1003.3 |
| 20260505073413 | 73 | 191 | 4.3 | 5.2 | 0.00 | 0.00 | 0.00 | 76 | 1003.7 |
| 20260505072910 | 73 | 208 | 6.1 | 7.8 | 0.00 | 0.00 | 0.00 | 76 | 1003.3 |
| 20260505072406 | 74 | 204 | 4.3 | 6.1 | 0.00 | 0.00 | 0.00 | 76 | 1003.7 |
| 20260505071902 | 74 | 216 | 9.6 | 11.3 | 0.00 | 0.00 | 0.00 | 75 | 1003.8 |
| 20260505071358 | 74 | 207 | 7.8 | 8.7 | 0.00 | 0.00 | 0.00 | 75 | 1003.6 |
| 20260505070856 | 74 | 209 | 7.8 | 8.7 | 0.00 | 0.00 | 0.00 | 75 | 1003.6 |
| 20260505070353 | 74 | 219 | 6.1 | 7.0 | 0.00 | 0.00 | 0.00 | 75 | 1003.8 |
| 20260505065848 | 74 | 224 | 6.1 | 8.7 | 0.00 | 0.00 | 0.00 | 75 | 1003.8 |
| 20260505065345 | 74 | 195 | 4.3 | 6.1 | 0.00 | 0.00 | 0.00 | 75 | 1003.9 |
| 20260505064842 | 74 | 199 | 3.5 | 4.3 | 0.00 | 0.00 | 0.00 | 75 | 1004.0 |
| 20260505064339 | 74 | 214 | 6.1 | 7.8 | 0.00 | 0.00 | 0.00 | 75 | 1004.1 |
| 20260505063837 | 74 | 204 | 6.1 | 7.0 | 0.00 | 0.00 | 0.00 | 74 | 1004.2 |
| 20260505063333 | 75 | 212 | 8.7 | 12.2 | 0.00 | 0.00 | 0.00 | 75 | 1004.2 |
| 20260505062830 | 74 | 207 | 5.2 | 6.1 | 0.00 | 0.00 | 0.00 | 75 | 1004.0 |
| 20260505062327 | 74 | 209 | 5.2 | 5.2 | 0.00 | 0.00 | 0.00 | 74 | 1004.2 |
| 20260505061823 | 74 | 201 | 7.0 | 8.7 | 0.00 | 0.00 | 0.00 | 74 | 1004.3 |
| 20260505061322 | 74 | 202 | 6.1 | 7.8 | 0.00 | 0.00 | 0.00 | 74 | 1004.1 |
| 20260505060819 | 74 | 199 | 4.3 | 5.2 | 0.00 | 0.00 | 0.00 | 75 | 1004.4 |
| 20260505060316 | 74 | 170 | 2.6 | 5.2 | 0.00 | 0.00 | 0.00 | 74 | 1004.4 |
| 20260505055811 | 74 | 201 | 3.5 | 4.3 | 0.00 | 0.00 | 0.00 | 75 | 1004.3 |
| 20260505055307 | 74 | 207 | 4.3 | 5.2 | 0.00 | 0.00 | 0.00 | 74 | 1004.5 |
| 20260505054805 | 74 | 183 | 2.6 | 2.6 | 0.00 | 0.00 | 0.00 | 75 | 1004.4 |
| 20260505054302 | 75 | 193 | 4.3 | 6.1 | 0.00 | 0.00 | 0.00 | 74 | 1004.4 |
| 20260505053801 | 75 | 183 | 2.6 | 2.6 | 0.00 | 0.00 | 0.00 | 74 | 1004.5 |
| 20260505053257 | 74 | 202 | 5.2 | 7.0 | 0.00 | 0.00 | 0.00 | 73 | 1004.4 |
| 20260505052754 | 75 | 207 | 5.2 | 6.1 | 0.00 | 0.00 | 0.00 | 73 | 1004.4 |
| 20260505052251 | 75 | 191 | 1.7 | 2.6 | 0.00 | 0.00 | 0.00 | 73 | 1004.5 |
| 20260505051748 | 75 | 196 | 1.7 | 1.7 | 0.00 | 0.00 | 0.00 | 73 | 1004.6 |
| 20260505051246 | 75 | 207 | 4.3 | 6.1 | 0.00 | 0.00 | 0.00 | 72 | 1004.2 |
| 20260505050744 | 75 | 195 | 7.0 | 11.3 | 0.00 | 0.00 | 0.00 | 72 | 1004.4 |